Overview Statistics Trail Chart Weather Telemetry Raw packets
 

This is the latest recevied weather packets stored in our database for station/object AG1T-20. If no packets are shown the sender has not sent any weather packets the latest 10 day(s).

<< 51 52 53 54 55 56 57 >>
Time Temp. Humidity Pressure Rain* Wind** Luminosity Snow
1787823006 16.67° C 63% 1022.5 hPa 0 mm - 0 W/m² -
1787822405 16.67° C 63% 1022.5 hPa 0 mm - 0 W/m² -
1787821805 16.67° C 62% 1022.5 hPa 0 mm - 0 W/m² -
1787821205 17.22° C 58% 1022.5 hPa 0 mm - 0 W/m² -
1787820611 17.78° C 57% 1022.4 hPa 0 mm - 0 W/m² -
1787820005 17.22° C 57% 1022.4 hPa 0 mm - 0 W/m² -
1787819405 17.78° C 56% 1022.4 hPa 0 mm - 0 W/m² -
1787818805 18.33° C 56% 1022.4 hPa 0 mm - 0 W/m² -
1787818205 18.33° C 53% 1022.4 hPa 0 mm - 0 W/m² -
1787817605 19.44° C 50% 1022.4 hPa 0 mm - 0 W/m² -
1787817005 20° C 47% 1022.4 hPa 0 mm - 0 W/m² -
1787816405 21.11° C 43% 1022.4 hPa 0 mm - 0 W/m² -
1787815805 19.44° C 51% 1022.4 hPa 0 mm - 0 W/m² -
1787815205 18.89° C 53% 1022.4 hPa 0 mm - 0 W/m² -
1787814605 18.89° C 53% 1022.4 hPa 0 mm - 0 W/m² -
1787814009 20.56° C 47% 1022.4 hPa 0 mm - 0 W/m² -
1787813405 20.56° C 47% 1022.3 hPa 0 mm - 0 W/m² -
1787812805 19.44° C 49% 1022.3 hPa 0 mm - 0 W/m² -
1787812205 20° C 49% 1022.3 hPa 0 mm - 0 W/m² -
1787811605 21.11° C 44% 1022.3 hPa 0 mm - 0 W/m² -
1787811005 21.67° C 42% 1022.3 hPa 0 mm - 0 W/m² -
1787810405 22.78° C 39% 1022.3 hPa 0 mm - 0 W/m² -
1787809805 23.33° C 38% 1022.6 hPa 0 mm - 0 W/m² -
1787809205 20° C 50% 1022.6 hPa 0 mm - 0 W/m² -
1787808605 20° C 50% 1022.6 hPa 0 mm - 0 W/m² -

* Rain latest hour (hover to see other rain measurements)
** Current wind speed in m/s (hover to see current wind gust speed)